User: anonymous   Login
Location: Unspecified
(0.0000°N, 0.0000°E)
Time: 09:08:26
(UTC+00:00)
Language:

AEHF 2 (USA 235) - Orbit

View from above orbital plane
View from above orbital plane
View from above satellite
View from above satellite

Ground track
Ground track

The orbit data is extracted from the following two-line orbital elements,

1 38254U 12019A   19022.85125133 -.00000284 +00000-0 +00000-0 0  9992
2 38254 001.5024 020.0111 0003655 285.2008 055.6214 01.00270673023751
Epoch (UTC): 22 January 2019 20:25:48
Eccentricity: 0.0003655
inclination: 1.5024°
perigee height: 35771 km
apogee height: 35802 km
right ascension of ascending node: 20.0111°
argument of perigee: 285.2008°
revolutions per day: 1.00270673
mean anomaly at epoch: 55.6214°
orbit number at epoch: 2375

The dashed part of the orbit path shows where the satellite is in the earth's shadow,  

DLR